DLH098 ENCN-EDDB

Flight info

Callsign DLH098
Flight time N/A
Altitude 37000
Route AMSEV DCT KOSEB DCT RODEP T280 KETAP KETAP1R
Aircraft A320/M-SDE3FGHIRWY/LB1

Departure

Time N/A
Airport Kristiansand Airport (ENCN)

Arrival

Time 2026-05-07 16:20
Airport Berlin Brandenburg Airport (EDDB)
Time Latitude Longitude Altitude Speed Heading
2026-05-07 15:40 54.37169 13.02926 37112 ft 449 kts 150°
2026-05-07 15:40 54.34499 13.05710 37115 ft 449 kts 150°
2026-05-07 15:40 54.29160 13.11271 37109 ft 449 kts 150°
2026-05-07 15:41 54.23825 13.16809 37117 ft 449 kts 150°
2026-05-07 15:41 54.18485 13.22328 37106 ft 448 kts 150°
2026-05-07 15:42 54.13176 13.27804 36893 ft 449 kts 150°
2026-05-07 15:42 54.10502 13.30559 36567 ft 449 kts 150°
2026-05-07 15:42 54.07825 13.33309 35760 ft 451 kts 150°
2026-05-07 15:43 54.05124 13.36079 34899 ft 455 kts 150°
2026-05-07 15:43 54.02411 13.38859 34050 ft 458 kts 149°
2026-05-07 15:43 53.99696 13.41643 33281 ft 451 kts 150°
2026-05-07 15:43 53.97023 13.44382 31989 ft 449 kts 149°
2026-05-07 15:44 53.94354 13.47109 31022 ft 445 kts 150°
2026-05-07 15:44 53.91713 13.49803 29908 ft 443 kts 150°
2026-05-07 15:44 53.89077 13.52479 28769 ft 440 kts 150°
2026-05-07 15:44 53.86491 13.55100 28169 ft 426 kts 150°
2026-05-07 15:45 53.83981 13.57639 27501 ft 415 kts 150°
2026-05-07 15:45 53.81515 13.60134 26846 ft 411 kts 149°
2026-05-07 15:45 53.79063 13.62615 26188 ft 410 kts 150°
2026-05-07 15:45 53.76615 13.65085 25541 ft 409 kts 150°
2026-05-07 15:46 53.71717 13.69880 24272 ft 405 kts 155°
2026-05-07 15:46 53.69090 13.71567 23636 ft 404 kts 164°
2026-05-07 15:46 53.66339 13.72480 22944 ft 402 kts 174°
2026-05-07 15:47 53.63562 13.72608 22360 ft 398 kts 183°
2026-05-07 15:47 53.60804 13.72310 21783 ft 395 kts 184°
2026-05-07 15:47 53.58069 13.72027 21234 ft 392 kts 184°
2026-05-07 15:47 53.55354 13.71760 20693 ft 389 kts 184°
2026-05-07 15:48 53.52660 13.71495 20181 ft 386 kts 184°
2026-05-07 15:48 53.49992 13.71229 19680 ft 383 kts 184°
2026-05-07 15:48 53.47339 13.70961 19192 ft 381 kts 184°
2026-05-07 15:48 53.44703 13.70693 18705 ft 378 kts 184°
2026-05-07 15:49 53.42082 13.70428 18198 ft 376 kts 184°
2026-05-07 15:49 53.39485 13.70164 17698 ft 373 kts 184°
2026-05-07 15:49 53.36907 13.69904 17217 ft 369 kts 184°
2026-05-07 15:49 53.34352 13.69646 16724 ft 367 kts 184°
2026-05-07 15:50 53.31810 13.69390 16226 ft 365 kts 184°
2026-05-07 15:50 53.29283 13.69136 15726 ft 363 kts 184°
2026-05-07 15:50 53.26796 13.68888 15220 ft 362 kts 184°
2026-05-07 15:50 53.24255 13.68637 14695 ft 362 kts 184°
2026-05-07 15:51 53.21744 13.68389 14171 ft 361 kts 184°
2026-05-07 15:51 53.19269 13.68141 13618 ft 361 kts 184°
2026-05-07 15:51 53.16767 13.67888 13057 ft 359 kts 184°
2026-05-07 15:51 53.14278 13.67636 12499 ft 357 kts 184°
2026-05-07 15:52 53.11805 13.67387 11938 ft 355 kts 184°
2026-05-07 15:52 53.09350 13.67140 11367 ft 353 kts 184°
2026-05-07 15:52 53.06903 13.66896 10837 ft 350 kts 183°
2026-05-07 15:52 53.04524 13.66658 10687 ft 336 kts 183°
2026-05-07 15:53 53.02236 13.66433 10565 ft 323 kts 183°
2026-05-07 15:53 53.00036 13.66218 10434 ft 311 kts 183°
2026-05-07 15:53 52.97944 13.66013 10324 ft 300 kts 183°
2026-05-07 15:53 52.95888 13.65774 10104 ft 293 kts 188°
2026-05-07 15:54 52.93962 13.64814 10019 ft 290 kts 206°
2026-05-07 15:54 52.92300 13.62945 9955 ft 290 kts 224°
2026-05-07 15:54 52.91061 13.60328 9885 ft 289 kts 241°
2026-05-07 15:54 52.90099 13.57397 9813 ft 290 kts 242°
2026-05-07 15:55 52.89132 13.54469 9754 ft 290 kts 241°
2026-05-07 15:55 52.88160 13.51549 9685 ft 290 kts 241°
2026-05-07 15:55 52.87199 13.48673 9613 ft 289 kts 241°
2026-05-07 15:55 52.86228 13.45770 9475 ft 289 kts 241°
2026-05-07 15:56 52.85256 13.42864 9340 ft 288 kts 241°
2026-05-07 15:56 52.84284 13.39965 9214 ft 288 kts 241°
2026-05-07 15:56 52.83311 13.37063 9066 ft 288 kts 241°
2026-05-07 15:56 52.82341 13.34175 8948 ft 287 kts 242°
2026-05-07 15:57 52.81375 13.31297 8804 ft 286 kts 241°
2026-05-07 15:57 52.80409 13.28422 8683 ft 286 kts 241°
2026-05-07 15:57 52.79443 13.25548 8558 ft 286 kts 242°
2026-05-07 15:57 52.78473 13.22673 8420 ft 286 kts 241°
2026-05-07 15:58 52.77521 13.19848 8295 ft 285 kts 241°
2026-05-07 15:58 52.76558 13.16986 8160 ft 285 kts 241°
2026-05-07 15:58 52.75596 13.14134 8027 ft 284 kts 241°
2026-05-07 15:58 52.74635 13.11291 7961 ft 283 kts 241°
2026-05-07 15:59 52.73671 13.08449 8056 ft 284 kts 241°
2026-05-07 15:59 52.72701 13.05593 8062 ft 286 kts 241°
2026-05-07 15:59 52.71730 13.02737 8061 ft 284 kts 241°
2026-05-07 15:59 52.70763 12.99893 8062 ft 284 kts 241°
2026-05-07 16:00 52.69809 12.97091 8062 ft 284 kts 241°
2026-05-07 16:00 52.68840 12.94243 8065 ft 285 kts 241°
2026-05-07 16:00 52.67871 12.91396 8067 ft 285 kts 241°
2026-05-07 16:00 52.66899 12.88546 8069 ft 286 kts 241°
2026-05-07 16:01 52.65926 12.85702 8068 ft 285 kts 241°
2026-05-07 16:01 52.64953 12.82866 8065 ft 284 kts 241°
2026-05-07 16:01 52.63980 12.80038 8064 ft 284 kts 239°
2026-05-07 16:01 52.62699 12.77583 8067 ft 284 kts 216°
2026-05-07 16:02 52.60941 12.76239 8064 ft 285 kts 191°
2026-05-07 16:02 52.58979 12.76230 8063 ft 283 kts 165°
2026-05-07 16:02 52.57206 12.77546 8065 ft 281 kts 143°
2026-05-07 16:02 52.55632 12.79456 8067 ft 281 kts 141°
2026-05-07 16:03 52.54060 12.81368 8065 ft 281 kts 141°
2026-05-07 16:03 52.52488 12.83274 8066 ft 281 kts 142°
2026-05-07 16:03 52.50915 12.85174 8065 ft 280 kts 142°
2026-05-07 16:03 52.49341 12.87074 8011 ft 281 kts 142°
2026-05-07 16:04 52.47769 12.88968 7940 ft 280 kts 142°
2026-05-07 16:04 52.46219 12.90835 7864 ft 280 kts 142°
2026-05-07 16:04 52.44650 12.92728 7793 ft 280 kts 142°
2026-05-07 16:04 52.43087 12.94614 7713 ft 279 kts 142°
2026-05-07 16:05 52.41528 12.96498 7650 ft 276 kts 142°
2026-05-07 16:05 52.40018 12.98320 7527 ft 263 kts 142°
2026-05-07 16:05 52.38548 12.99983 7385 ft 253 kts 150°
2026-05-07 16:05 52.36922 13.00963 7195 ft 248 kts 168°
2026-05-07 16:06 52.35205 13.00992 7075 ft 249 kts 193°
2026-05-07 16:06 52.33696 12.99737 6940 ft 249 kts 224°
2026-05-07 16:06 52.32786 12.97398 6826 ft 247 kts 256°
2026-05-07 16:06 52.32511 12.94638 6708 ft 247 kts 264°
2026-05-07 16:07 52.32116 12.91901 6581 ft 249 kts 250°
2026-05-07 16:07 52.31477 12.89274 6462 ft 248 kts 249°
2026-05-07 16:07 52.30839 12.86655 6333 ft 248 kts 249°
2026-05-07 16:07 52.30201 12.84041 6204 ft 248 kts 249°
2026-05-07 16:08 52.29561 12.81424 6088 ft 247 kts 249°
2026-05-07 16:08 52.28922 12.78817 5951 ft 247 kts 249°
2026-05-07 16:08 52.28294 12.76252 6027 ft 247 kts 249°
2026-05-07 16:08 52.27657 12.73643 6071 ft 248 kts 249°
2026-05-07 16:09 52.27020 12.71035 6057 ft 248 kts 249°
2026-05-07 16:09 52.26377 12.68427 6070 ft 248 kts 249°
2026-05-07 16:09 52.25542 12.65984 6066 ft 248 kts 226°
2026-05-07 16:09 52.24096 12.64520 6058 ft 247 kts 193°
2026-05-07 16:10 52.22411 12.64490 6067 ft 243 kts 161°
2026-05-07 16:10 52.20860 12.65559 6063 ft 242 kts 154°
2026-05-07 16:10 52.19328 12.66704 6055 ft 241 kts 146°
2026-05-07 16:10 52.18079 12.68478 6064 ft 238 kts 125°
2026-05-07 16:11 52.17325 12.70801 5940 ft 234 kts 104°
2026-05-07 16:11 52.17124 12.73397 5785 ft 231 kts 85°
2026-05-07 16:11 52.17413 12.75940 5647 ft 228 kts 69°
2026-05-07 16:11 52.18002 12.78340 5525 ft 228 kts 67°
2026-05-07 16:12 52.18593 12.80728 5321 ft 227 kts 67°
2026-05-07 16:12 52.19177 12.83107 5153 ft 226 kts 67°
2026-05-07 16:12 52.19757 12.85484 5019 ft 225 kts 68°
2026-05-07 16:12 52.20335 12.87859 4886 ft 225 kts 68°
2026-05-07 16:13 52.20902 12.90193 4763 ft 224 kts 68°
2026-05-07 16:13 52.21474 12.92577 4638 ft 231 kts 68°
2026-05-07 16:13 52.22054 12.95021 4465 ft 229 kts 68°
2026-05-07 16:13 52.22639 12.97438 4357 ft 230 kts 67°
2026-05-07 16:14 52.23225 12.99841 4224 ft 229 kts 67°
2026-05-07 16:14 52.23806 13.02232 4077 ft 225 kts 67°
2026-05-07 16:14 52.24388 13.04624 3970 ft 225 kts 67°
2026-05-07 16:14 52.24965 13.07002 3870 ft 226 kts 67°
2026-05-07 16:15 52.25530 13.09333 3754 ft 223 kts 68°
2026-05-07 16:15 52.26099 13.11682 3634 ft 224 kts 67°
2026-05-07 16:15 52.26671 13.14047 3503 ft 225 kts 67°
2026-05-07 16:15 52.27245 13.16425 3373 ft 224 kts 67°
2026-05-07 16:16 52.27810 13.18763 3250 ft 219 kts 67°
2026-05-07 16:16 52.28361 13.21047 3127 ft 213 kts 67°
2026-05-07 16:16 52.28896 13.23269 3026 ft 207 kts 67°
2026-05-07 16:16 52.29412 13.25412 2943 ft 198 kts 67°
2026-05-07 16:17 52.29901 13.27448 2746 ft 187 kts 67°
2026-05-07 16:17 52.30364 13.29376 2504 ft 179 kts 67°
2026-05-07 16:17 52.30804 13.31206 2262 ft 173 kts 66°
2026-05-07 16:17 52.31237 13.33012 2050 ft 167 kts 66°
2026-05-07 16:18 52.31655 13.34759 1805 ft 163 kts 67°
2026-05-07 16:18 52.32056 13.36433 1595 ft 150 kts 66°
2026-05-07 16:18 52.32415 13.37937 1395 ft 137 kts 66°
2026-05-07 16:18 52.32757 13.39367 1203 ft 133 kts 67°
2026-05-07 16:19 52.33090 13.40758 1011 ft 131 kts 68°
2026-05-07 16:19 52.33424 13.42153 821 ft 132 kts 69°
2026-05-07 16:19 52.33757 13.43550 642 ft 132 kts 69°
2026-05-07 16:19 52.34092 13.44953 457 ft 133 kts 71°
2026-05-07 16:20 52.34420 13.46332 286 ft 132 kts 71°
2026-05-07 16:20 52.34749 13.47722 197 ft 129 kts 70°
2026-05-07 16:20 52.35040 13.48949 154 ft 85 kts 64°
2026-05-07 16:20 52.35212 13.49657 154 ft 43 kts 69°
2026-05-07 16:21 52.35366 13.49988 154 ft 33 kts 39°
2026-05-07 16:21 52.35504 13.50164 155 ft 23 kts 38°
2026-05-07 16:21 52.35606 13.50350 154 ft 22 kts 72°
2026-05-07 16:21 52.35642 13.50521 154 ft 0 kts 66°
2026-05-07 16:22 52.35649 13.50543 154 ft 5 kts 62°
2026-05-07 16:22 52.35673 13.50615 154 ft 18 kts 64°
2026-05-07 16:23 52.35741 13.50817 154 ft 18 kts 27°
2026-05-07 16:23 52.35859 13.50771 155 ft 17 kts 338°
2026-05-07 16:23 52.35961 13.50704 155 ft 15 kts 339°
2026-05-07 16:23 52.36056 13.50645 155 ft 18 kts 339°
2026-05-07 16:24 52.36219 13.50545 155 ft 31 kts 338°
2026-05-07 16:24 52.36422 13.50414 155 ft 29 kts 341°
2026-05-07 16:24 52.36554 13.50368 157 ft 15 kts 46°
2026-05-07 16:24 52.36579 13.50479 155 ft 0 kts 69°